Flag for Equatorial Guinea Weather past 2 weeks in Ebebiyín, Equatorial Guinea

Now
70 °F

Partly cloudy.


Feels Like: 70 °F
Forecast: 69 / 84 °F
Wind: 2 mph from North

Location: Yaounde Airport

Current Time: May 29, 2015 at 5:34:05 AM

Latest Report: May 29, 2015 at 4:00 AM


Visibility: 5 mi

Pressure: 29.95 "Hg

Humidity: 94%

Dew point: 68 °F

Location of EbebiyínLocation

Historic Weather in Ebebiyín — Graph

°F

Ebebiyín temperature yesterday

Maximum temperature yesterday: 88 °F (at 4:00 PM)
Minimum temperature yesterday: 70 °F (at 4:00 AM)
Average temperature yesterday: 77 °F

Past Weeks' High & Low Weather Summary

 TemperatureHumidityPressure
High91 °F (May 17, 3:00 PM)100% (May 14, 3:00 AM)30.12 "Hg (May 14, 3:00 AM)
Low63 °F (May 22, 6:00 AM)46% (May 19, 1:00 PM)29.89 "Hg (May 14, 4:00 PM)
Average76 °F82%30.02 "Hg
* Reported May 14 3:00 AM — May 29 3:00 AM, Ebebiyín, Weather by CustomWeather, © 2015

Note: Actual official high and low records may vary slightly from our data, if they occured in-between our weather recording intervals... More about our weather records

Advertising

Ebebiyín weather history for previous 24 hours

 ConditionsComfort  
Time TempWeatherWind HumidityBarometerVisibility
3:00 AM
Fri, May 29
70 °FLow clouds.2 mph94%29.98 "Hg4 mi
2:00 AM72 °FPassing clouds.2 mph94%29.98 "Hg5 mi
1:00 AM72 °FPartly cloudy.3 mph94%29.98 "Hg5 mi
12:00 AM72 °FPassing clouds.2 mph94%29.98 "Hg5 mi
11:00 PM
Thu, May 28
72 °FThunderstorms. Passing clouds.8 mph94%29.98 "Hg5 mi
10:00 PM72 °FThunderstorms. Passing clouds.3 mph94%29.98 "Hg5 mi
6:00 PM77 °FThunderstorms. Broken clouds.2 mph89%29.95 "Hg2 mi
5:00 PM82 °FPartly sunny.6 mph70%29.92 "HgN/A
4:00 PM88 °FPartly sunny.2 mph55%29.92 "HgN/A
3:00 PM86 °FPartly sunny.3 mph62%29.95 "HgN/A
2:00 PM86 °FPartly sunny.No wind59%29.95 "HgN/A
1:00 PM84 °FPartly sunny.3 mph62%29.98 "HgN/A
12:00 PM81 °FPartly sunny.5 mph70%30.01 "HgN/A
11:00 AM81 °FPartly sunny.5 mph70%30.04 "HgN/A
10:00 AM77 °FPartly sunny.5 mph79%30.07 "HgN/A
9:00 AM75 °FPartly sunny.5 mph83%30.07 "HgN/A
8:00 AM73 °FPartly sunny.5 mph89%30.07 "HgN/A
7:00 AM72 °FPartly sunny.2 mph94%30.01 "Hg4 mi
6:00 AM72 °FPassing clouds.2 mph94%30.04 "Hg4 mi
5:00 AM72 °FPassing clouds.No wind94%30.01 "Hg4 mi
Weather by CustomWeather, © 2015

See weather overviewHow to use our weather pages